Date_Time,Julian_Date,Latitude,Longitude,Instrument_Depth,Water_Salinity
(yyyy-mm-dd hh:mn:ss UTC),(JD),(+ deg. North),(+ deg. East),(m),(ppt)
1984-07-18 21:30:00 UTC,2445900.395833,29.6633,-93.4786,0090,0.3210
1984-07-18 22:00:00 UTC,2445900.416667,29.6633,-93.4786,0090,0.3250
1984-07-18 22:30:00 UTC,2445900.437500,29.6633,-93.4786,0090,0.3250
1984-07-18 23:00:00 UTC,2445900.458333,29.6633,-93.4786,0090,0.3240
1984-07-18 23:30:00 UTC,2445900.479167,29.6633,-93.4786,0090,0.3260
1984-07-19 00:00:00 UTC,2445900.500000,29.6633,-93.4786,0090,0.3290
1984-07-19 00:30:00 UTC,2445900.520833,29.6633,-93.4786,0090,0.3290
1984-07-19 01:00:00 UTC,2445900.541667,29.6633,-93.4786,0090,0.3290
1984-07-19 01:30:00 UTC,2445900.562500,29.6633,-93.4786,0090,0.3310
1984-07-19 02:00:00 UTC,2445900.583333,29.6633,-93.4786,0090,0.3340
1984-07-19 02:30:00 UTC,2445900.604167,29.6633,-93.4786,0090,0.3370
1984-07-19 03:00:00 UTC,2445900.625000,29.6633,-93.4786,0090,0.3400
1984-07-19 03:30:00 UTC,2445900.645833,29.6633,-93.4786,0090,0.3430
1984-07-19 04:00:00 UTC,2445900.666667,29.6633,-93.4786,0090,0.3430
1984-07-19 04:30:00 UTC,2445900.687500,29.6633,-93.4786,0090,0.3420
1984-07-19 05:00:00 UTC,2445900.708333,29.6633,-93.4786,0090,0.3420
1984-07-19 05:30:00 UTC,2445900.729167,29.6633,-93.4786,0090,0.3400
1984-07-19 06:00:00 UTC,2445900.750000,29.6633,-93.4786,0090,0.3380
1984-07-19 06:30:00 UTC,2445900.770833,29.6633,-93.4786,0090,0.3380
1984-07-19 07:00:00 UTC,2445900.791667,29.6633,-93.4786,0090,0.3390
1984-07-19 07:30:00 UTC,2445900.812500,29.6633,-93.4786,0090,0.3370
1984-07-19 08:00:00 UTC,2445900.833333,29.6633,-93.4786,0090,0.3360
1984-07-19 08:30:00 UTC,2445900.854167,29.6633,-93.4786,0090,0.3380
1984-07-19 09:00:00 UTC,2445900.875000,29.6633,-93.4786,0090,0.3400
1984-07-19 09:30:00 UTC,2445900.895833,29.6633,-93.4786,0090,0.3410
1984-07-19 10:00:00 UTC,2445900.916667,29.6633,-93.4786,0090,0.3390
1984-07-19 10:30:00 UTC,2445900.937500,29.6633,-93.4786,0090,0.3390
1984-07-19 11:00:00 UTC,2445900.958333,29.6633,-93.4786,0090,0.3420
1984-07-19 11:30:00 UTC,2445900.979167,29.6633,-93.4786,0090,0.3430
1984-07-19 12:00:00 UTC,2445901.000000,29.6633,-93.4786,0090,0.3450
1984-07-19 12:30:00 UTC,2445901.020833,29.6633,-93.4786,0090,0.3500
1984-07-19 13:00:00 UTC,2445901.041667,29.6633,-93.4786,0090,0.3530
1984-07-19 13:30:00 UTC,2445901.062500,29.6633,-93.4786,0090,0.3570
1984-07-19 14:00:00 UTC,2445901.083333,29.6633,-93.4786,0090,0.3600
1984-07-19 14:30:00 UTC,2445901.104167,29.6633,-93.4786,0090,0.3610
1984-07-19 15:00:00 UTC,2445901.125000,29.6633,-93.4786,0090,0.3600
1984-07-19 15:30:00 UTC,2445901.145833,29.6633,-93.4786,0090,0.3630
1984-07-19 16:00:00 UTC,2445901.166667,29.6633,-93.4786,0090,0.3650
1984-07-19 16:30:00 UTC,2445901.187500,29.6633,-93.4786,0090,0.3610
1984-07-19 17:00:00 UTC,2445901.208333,29.6633,-93.4786,0090,0.3550
1984-07-19 17:30:00 UTC,2445901.229167,29.6633,-93.4786,0090,0.3550
1984-07-19 18:00:00 UTC,2445901.250000,29.6633,-93.4786,0090,0.3580
1984-07-19 18:30:00 UTC,2445901.270833,29.6633,-93.4786,0090,0.3580
1984-07-19 19:00:00 UTC,2445901.291667,29.6633,-93.4786,0090,0.3560
1984-07-19 19:30:00 UTC,2445901.312500,29.6633,-93.4786,0090,0.3560
1984-07-19 20:00:00 UTC,2445901.333333,29.6633,-93.4786,0090,0.3550
1984-07-19 20:30:00 UTC,2445901.354167,29.6633,-93.4786,0090,0.3560
1984-07-19 21:00:00 UTC,2445901.375000,29.6633,-93.4786,0090,0.3570
1984-07-19 21:30:00 UTC,2445901.395833,29.6633,-93.4786,0090,0.3560
1984-07-19 22:00:00 UTC,2445901.416667,29.6633,-93.4786,0090,0.3570
1984-07-19 22:30:00 UTC,2445901.437500,29.6633,-93.4786,0090,0.3590
1984-07-19 23:00:00 UTC,2445901.458333,29.6633,-93.4786,0090,0.3590
1984-07-19 23:30:00 UTC,2445901.479167,29.6633,-93.4786,0090,0.3580
1984-07-20 00:00:00 UTC,2445901.500000,29.6633,-93.4786,0090,0.3590
1984-07-20 00:30:00 UTC,2445901.520833,29.6633,-93.4786,0090,0.3610
1984-07-20 01:00:00 UTC,2445901.541667,29.6633,-93.4786,0090,0.3660
1984-07-20 01:30:00 UTC,2445901.562500,29.6633,-93.4786,0090,0.3670
1984-07-20 02:00:00 UTC,2445901.583333,29.6633,-93.4786,0090,0.3630
1984-07-20 02:30:00 UTC,2445901.604167,29.6633,-93.4786,0090,0.3580
1984-07-20 03:00:00 UTC,2445901.625000,29.6633,-93.4786,0090,0.3560
1984-07-20 03:30:00 UTC,2445901.645833,29.6633,-93.4786,0090,0.3570
1984-07-20 04:00:00 UTC,2445901.666667,29.6633,-93.4786,0090,0.3620
1984-07-20 04:30:00 UTC,2445901.687500,29.6633,-93.4786,0090,0.3650
1984-07-20 05:00:00 UTC,2445901.708333,29.6633,-93.4786,0090,0.3660
1984-07-20 05:30:00 UTC,2445901.729167,29.6633,-93.4786,0090,0.3660
1984-07-20 06:00:00 UTC,2445901.750000,29.6633,-93.4786,0090,0.3640
1984-07-20 06:30:00 UTC,2445901.770833,29.6633,-93.4786,0090,0.3630
1984-07-20 07:00:00 UTC,2445901.791667,29.6633,-93.4786,0090,0.3640
1984-07-20 07:30:00 UTC,2445901.812500,29.6633,-93.4786,0090,0.3640
1984-07-20 08:00:00 UTC,2445901.833333,29.6633,-93.4786,0090,0.3650
1984-07-20 08:30:00 UTC,2445901.854167,29.6633,-93.4786,0090,0.3660
1984-07-20 09:00:00 UTC,2445901.875000,29.6633,-93.4786,0090,0.3650
1984-07-20 09:30:00 UTC,2445901.895833,29.6633,-93.4786,0090,0.3630
1984-07-20 10:00:00 UTC,2445901.916667,29.6633,-93.4786,0090,0.3610
1984-07-20 10:30:00 UTC,2445901.937500,29.6633,-93.4786,0090,0.3590
1984-07-20 11:00:00 UTC,2445901.958333,29.6633,-93.4786,0090,0.3560
1984-07-20 11:30:00 UTC,2445901.979167,29.6633,-93.4786,0090,0.3540
1984-07-20 12:00:00 UTC,2445902.000000,29.6633,-93.4786,0090,0.3530
1984-07-20 12:30:00 UTC,2445902.020833,29.6633,-93.4786,0090,0.3520
1984-07-20 13:00:00 UTC,2445902.041667,29.6633,-93.4786,0090,0.3530
1984-07-20 13:30:00 UTC,2445902.062500,29.6633,-93.4786,0090,0.3550
1984-07-20 14:00:00 UTC,2445902.083333,29.6633,-93.4786,0090,0.3570
1984-07-20 14:30:00 UTC,2445902.104167,29.6633,-93.4786,0090,0.3620
1984-07-20 15:00:00 UTC,2445902.125000,29.6633,-93.4786,0090,0.3650
1984-07-20 15:30:00 UTC,2445902.145833,29.6633,-93.4786,0090,0.3640
1984-07-20 16:00:00 UTC,2445902.166667,29.6633,-93.4786,0090,0.3650
1984-07-20 16:30:00 UTC,2445902.187500,29.6633,-93.4786,0090,0.3660
1984-07-20 17:00:00 UTC,2445902.208333,29.6633,-93.4786,0090,0.3660
1984-07-20 17:30:00 UTC,2445902.229167,29.6633,-93.4786,0090,0.3680
1984-07-20 18:00:00 UTC,2445902.250000,29.6633,-93.4786,0090,0.3680
1984-07-20 18:30:00 UTC,2445902.270833,29.6633,-93.4786,0090,0.3680
1984-07-20 19:00:00 UTC,2445902.291667,29.6633,-93.4786,0090,0.3680
1984-07-20 19:30:00 UTC,2445902.312500,29.6633,-93.4786,0090,0.3680
1984-07-20 20:00:00 UTC,2445902.333333,29.6633,-93.4786,0090,0.3670
1984-07-20 20:30:00 UTC,2445902.354167,29.6633,-93.4786,0090,0.3660
1984-07-20 21:00:00 UTC,2445902.375000,29.6633,-93.4786,0090,0.3670
1984-07-20 21:30:00 UTC,2445902.395833,29.6633,-93.4786,0090,0.3670
1984-07-20 22:00:00 UTC,2445902.416667,29.6633,-93.4786,0090,0.3650
1984-07-20 22:30:00 UTC,2445902.437500,29.6633,-93.4786,0090,0.3630
1984-07-20 23:00:00 UTC,2445902.458333,29.6633,-93.4786,0090,0.3620
1984-07-20 23:30:00 UTC,2445902.479167,29.6633,-93.4786,0090,0.3620
1984-07-21 00:00:00 UTC,2445902.500000,29.6633,-93.4786,0090,0.3620
1984-07-21 00:30:00 UTC,2445902.520833,29.6633,-93.4786,0090,0.3610
1984-07-21 01:00:00 UTC,2445902.541667,29.6633,-93.4786,0090,0.3590
1984-07-21 01:30:00 UTC,2445902.562500,29.6633,-93.4786,0090,0.3550
1984-07-21 02:00:00 UTC,2445902.583333,29.6633,-93.4786,0090,0.3540
1984-07-21 02:30:00 UTC,2445902.604167,29.6633,-93.4786,0090,0.3530
1984-07-21 03:00:00 UTC,2445902.625000,29.6633,-93.4786,0090,0.3510
1984-07-21 03:30:00 UTC,2445902.645833,29.6633,-93.4786,0090,0.3490
1984-07-21 04:00:00 UTC,2445902.666667,29.6633,-93.4786,0090,0.3490
1984-07-21 04:30:00 UTC,2445902.687500,29.6633,-93.4786,0090,0.3490
1984-07-21 05:00:00 UTC,2445902.708333,29.6633,-93.4786,0090,0.3510
1984-07-21 05:30:00 UTC,2445902.729167,29.6633,-93.4786,0090,0.3530
1984-07-21 06:00:00 UTC,2445902.750000,29.6633,-93.4786,0090,0.3540
1984-07-21 06:30:00 UTC,2445902.770833,29.6633,-93.4786,0090,0.3540
1984-07-21 07:00:00 UTC,2445902.791667,29.6633,-93.4786,0090,0.3550
1984-07-21 07:30:00 UTC,2445902.812500,29.6633,-93.4786,0090,0.3550
1984-07-21 08:00:00 UTC,2445902.833333,29.6633,-93.4786,0090,0.3560
1984-07-21 08:30:00 UTC,2445902.854167,29.6633,-93.4786,0090,0.3560
1984-07-21 09:00:00 UTC,2445902.875000,29.6633,-93.4786,0090,0.3570
1984-07-21 09:30:00 UTC,2445902.895833,29.6633,-93.4786,0090,0.3580
1984-07-21 10:00:00 UTC,2445902.916667,29.6633,-93.4786,0090,0.3590
1984-07-21 10:30:00 UTC,2445902.937500,29.6633,-93.4786,0090,0.3570
1984-07-21 11:00:00 UTC,2445902.958333,29.6633,-93.4786,0090,0.3530
1984-07-21 11:30:00 UTC,2445902.979167,29.6633,-93.4786,0090,0.3500
1984-07-21 12:00:00 UTC,2445903.000000,29.6633,-93.4786,0090,0.3500
1984-07-21 12:30:00 UTC,2445903.020833,29.6633,-93.4786,0090,0.3520
1984-07-21 13:00:00 UTC,2445903.041667,29.6633,-93.4786,0090,0.3550
1984-07-21 13:30:00 UTC,2445903.062500,29.6633,-93.4786,0090,0.3540
1984-07-21 14:00:00 UTC,2445903.083333,29.6633,-93.4786,0090,0.3540
1984-07-21 14:30:00 UTC,2445903.104167,29.6633,-93.4786,0090,0.3580
1984-07-21 15:00:00 UTC,2445903.125000,29.6633,-93.4786,0090,0.3590
1984-07-21 15:30:00 UTC,2445903.145833,29.6633,-93.4786,0090,0.3580
1984-07-21 16:00:00 UTC,2445903.166667,29.6633,-93.4786,0090,0.3580
1984-07-21 16:30:00 UTC,2445903.187500,29.6633,-93.4786,0090,0.3580
1984-07-21 17:00:00 UTC,2445903.208333,29.6633,-93.4786,0090,0.3570
1984-07-21 17:30:00 UTC,2445903.229167,29.6633,-93.4786,0090,0.3570
1984-07-21 18:00:00 UTC,2445903.250000,29.6633,-93.4786,0090,0.3570
1984-07-21 18:30:00 UTC,2445903.270833,29.6633,-93.4786,0090,0.3580
1984-07-21 19:00:00 UTC,2445903.291667,29.6633,-93.4786,0090,0.3610
1984-07-21 19:30:00 UTC,2445903.312500,29.6633,-93.4786,0090,0.3630
1984-07-21 20:00:00 UTC,2445903.333333,29.6633,-93.4786,0090,0.3600
1984-07-21 20:30:00 UTC,2445903.354167,29.6633,-93.4786,0090,0.3560
1984-07-21 21:00:00 UTC,2445903.375000,29.6633,-93.4786,0090,0.3580
1984-07-21 21:30:00 UTC,2445903.395833,29.6633,-93.4786,0090,0.3610
1984-07-21 22:00:00 UTC,2445903.416667,29.6633,-93.4786,0090,0.3620
1984-07-21 22:30:00 UTC,2445903.437500,29.6633,-93.4786,0090,0.3610
1984-07-21 23:00:00 UTC,2445903.458333,29.6633,-93.4786,0090,0.3570
1984-07-21 23:30:00 UTC,2445903.479167,29.6633,-93.4786,0090,0.3540
1984-07-22 00:00:00 UTC,2445903.500000,29.6633,-93.4786,0090,0.3540
1984-07-22 00:30:00 UTC,2445903.520833,29.6633,-93.4786,0090,0.3560
1984-07-22 01:00:00 UTC,2445903.541667,29.6633,-93.4786,0090,0.3550
1984-07-22 01:30:00 UTC,2445903.562500,29.6633,-93.4786,0090,0.3510
1984-07-22 02:00:00 UTC,2445903.583333,29.6633,-93.4786,0090,0.3500
1984-07-22 02:30:00 UTC,2445903.604167,29.6633,-93.4786,0090,0.3510
1984-07-22 03:00:00 UTC,2445903.625000,29.6633,-93.4786,0090,0.3490
1984-07-22 03:30:00 UTC,2445903.645833,29.6633,-93.4786,0090,0.3470
1984-07-22 04:00:00 UTC,2445903.666667,29.6633,-93.4786,0090,0.3460
1984-07-22 04:30:00 UTC,2445903.687500,29.6633,-93.4786,0090,0.3470
1984-07-22 05:00:00 UTC,2445903.708333,29.6633,-93.4786,0090,0.3490
1984-07-22 05:30:00 UTC,2445903.729167,29.6633,-93.4786,0090,0.3500
1984-07-22 06:00:00 UTC,2445903.750000,29.6633,-93.4786,0090,0.3500
1984-07-22 06:30:00 UTC,2445903.770833,29.6633,-93.4786,0090,0.3500
1984-07-22 07:00:00 UTC,2445903.791667,29.6633,-93.4786,0090,0.3520
1984-07-22 07:30:00 UTC,2445903.812500,29.6633,-93.4786,0090,0.3550
1984-07-22 08:00:00 UTC,2445903.833333,29.6633,-93.4786,0090,0.3560
1984-07-22 08:30:00 UTC,2445903.854167,29.6633,-93.4786,0090,0.3550
1984-07-22 09:00:00 UTC,2445903.875000,29.6633,-93.4786,0090,0.3550
1984-07-22 09:30:00 UTC,2445903.895833,29.6633,-93.4786,0090,0.3550
1984-07-22 10:00:00 UTC,2445903.916667,29.6633,-93.4786,0090,0.3550
1984-07-22 10:30:00 UTC,2445903.937500,29.6633,-93.4786,0090,0.3560
1984-07-22 11:00:00 UTC,2445903.958333,29.6633,-93.4786,0090,0.3570
1984-07-22 11:30:00 UTC,2445903.979167,29.6633,-93.4786,0090,0.3580
1984-07-22 12:00:00 UTC,2445904.000000,29.6633,-93.4786,0090,0.3600
1984-07-22 12:30:00 UTC,2445904.020833,29.6633,-93.4786,0090,0.3600
1984-07-22 13:00:00 UTC,2445904.041667,29.6633,-93.4786,0090,0.3570
1984-07-22 13:30:00 UTC,2445904.062500,29.6633,-93.4786,0090,0.3550
1984-07-22 14:00:00 UTC,2445904.083333,29.6633,-93.4786,0090,0.3560
1984-07-22 14:30:00 UTC,2445904.104167,29.6633,-93.4786,0090,0.3570
1984-07-22 15:00:00 UTC,2445904.125000,29.6633,-93.4786,0090,0.3570
1984-07-22 15:30:00 UTC,2445904.145833,29.6633,-93.4786,0090,0.3600
1984-07-22 16:00:00 UTC,2445904.166667,29.6633,-93.4786,0090,0.3640
1984-07-22 16:30:00 UTC,2445904.187500,29.6633,-93.4786,0090,0.3680
1984-07-22 17:00:00 UTC,2445904.208333,29.6633,-93.4786,0090,0.3690
1984-07-22 17:30:00 UTC,2445904.229167,29.6633,-93.4786,0090,0.3670
1984-07-22 18:00:00 UTC,2445904.250000,29.6633,-93.4786,0090,0.3660
1984-07-22 18:30:00 UTC,2445904.270833,29.6633,-93.4786,0090,0.3670
1984-07-22 19:00:00 UTC,2445904.291667,29.6633,-93.4786,0090,0.3670
1984-07-22 19:30:00 UTC,2445904.312500,29.6633,-93.4786,0090,0.3660
1984-07-22 20:00:00 UTC,2445904.333333,29.6633,-93.4786,0090,0.3660
1984-07-22 20:30:00 UTC,2445904.354167,29.6633,-93.4786,0090,0.3640
1984-07-22 21:00:00 UTC,2445904.375000,29.6633,-93.4786,0090,0.3600
1984-07-22 21:30:00 UTC,2445904.395833,29.6633,-93.4786,0090,0.3570
1984-07-22 22:00:00 UTC,2445904.416667,29.6633,-93.4786,0090,0.3570
1984-07-22 22:30:00 UTC,2445904.437500,29.6633,-93.4786,0090,0.3590
1984-07-22 23:00:00 UTC,2445904.458333,29.6633,-93.4786,0090,0.3600
1984-07-22 23:30:00 UTC,2445904.479167,29.6633,-93.4786,0090,0.3590
1984-07-23 00:00:00 UTC,2445904.500000,29.6633,-93.4786,0090,0.3590
1984-07-23 00:30:00 UTC,2445904.520833,29.6633,-93.4786,0090,0.3620
1984-07-23 01:00:00 UTC,2445904.541667,29.6633,-93.4786,0090,0.3660
1984-07-23 01:30:00 UTC,2445904.562500,29.6633,-93.4786,0090,0.3670
1984-07-23 02:00:00 UTC,2445904.583333,29.6633,-93.4786,0090,0.3680
1984-07-23 02:30:00 UTC,2445904.604167,29.6633,-93.4786,0090,0.3680
1984-07-23 03:00:00 UTC,2445904.625000,29.6633,-93.4786,0090,0.3640
1984-07-23 03:30:00 UTC,2445904.645833,29.6633,-93.4786,0090,0.3630
1984-07-23 04:00:00 UTC,2445904.666667,29.6633,-93.4786,0090,0.3630
1984-07-23 04:30:00 UTC,2445904.687500,29.6633,-93.4786,0090,0.3620
1984-07-23 05:00:00 UTC,2445904.708333,29.6633,-93.4786,0090,0.3600
1984-07-23 05:30:00 UTC,2445904.729167,29.6633,-93.4786,0090,0.3570
1984-07-23 06:00:00 UTC,2445904.750000,29.6633,-93.4786,0090,0.3550
1984-07-23 06:30:00 UTC,2445904.770833,29.6633,-93.4786,0090,0.3570
1984-07-23 07:00:00 UTC,2445904.791667,29.6633,-93.4786,0090,0.3610
1984-07-23 07:30:00 UTC,2445904.812500,29.6633,-93.4786,0090,0.3630
1984-07-23 08:00:00 UTC,2445904.833333,29.6633,-93.4786,0090,0.3640
1984-07-23 08:30:00 UTC,2445904.854167,29.6633,-93.4786,0090,0.3650
1984-07-23 09:00:00 UTC,2445904.875000,29.6633,-93.4786,0090,0.3660
1984-07-23 09:30:00 UTC,2445904.895833,29.6633,-93.4786,0090,0.3630
1984-07-23 10:00:00 UTC,2445904.916667,29.6633,-93.4786,0090,0.3620
1984-07-23 10:30:00 UTC,2445904.937500,29.6633,-93.4786,0090,0.3640
1984-07-23 11:00:00 UTC,2445904.958333,29.6633,-93.4786,0090,0.3660
1984-07-23 11:30:00 UTC,2445904.979167,29.6633,-93.4786,0090,0.3660
1984-07-23 12:00:00 UTC,2445905.000000,29.6633,-93.4786,0090,0.3650
1984-07-23 12:30:00 UTC,2445905.020833,29.6633,-93.4786,0090,0.3640
1984-07-23 13:00:00 UTC,2445905.041667,29.6633,-93.4786,0090,0.3630
1984-07-23 13:30:00 UTC,2445905.062500,29.6633,-93.4786,0090,0.3610
1984-07-23 14:00:00 UTC,2445905.083333,29.6633,-93.4786,0090,0.3590
1984-07-23 14:30:00 UTC,2445905.104167,29.6633,-93.4786,0090,0.3580
1984-07-23 15:00:00 UTC,2445905.125000,29.6633,-93.4786,0090,0.3580
1984-07-23 15:30:00 UTC,2445905.145833,29.6633,-93.4786,0090,0.3600
1984-07-23 16:00:00 UTC,2445905.166667,29.6633,-93.4786,0090,0.3640
1984-07-23 16:30:00 UTC,2445905.187500,29.6633,-93.4786,0090,0.3670
1984-07-23 17:00:00 UTC,2445905.208333,29.6633,-93.4786,0090,0.3620
1984-07-23 17:30:00 UTC,2445905.229167,29.6633,-93.4786,0090,0.3550
1984-07-23 18:00:00 UTC,2445905.250000,29.6633,-93.4786,0090,0.3560
1984-07-23 18:30:00 UTC,2445905.270833,29.6633,-93.4786,0090,0.3570
1984-07-23 19:00:00 UTC,2445905.291667,29.6633,-93.4786,0090,0.3530
1984-07-23 19:30:00 UTC,2445905.312500,29.6633,-93.4786,0090,0.3530
1984-07-23 20:00:00 UTC,2445905.333333,29.6633,-93.4786,0090,0.3600
1984-07-23 20:30:00 UTC,2445905.354167,29.6633,-93.4786,0090,0.3640
1984-07-23 21:00:00 UTC,2445905.375000,29.6633,-93.4786,0090,0.3640
1984-07-23 21:30:00 UTC,2445905.395833,29.6633,-93.4786,0090,0.3630
1984-07-23 22:00:00 UTC,2445905.416667,29.6633,-93.4786,0090,0.3600
1984-07-23 22:30:00 UTC,2445905.437500,29.6633,-93.4786,0090,0.3570
1984-07-23 23:00:00 UTC,2445905.458333,29.6633,-93.4786,0090,0.3560
1984-07-23 23:30:00 UTC,2445905.479167,29.6633,-93.4786,0090,0.3560
1984-07-24 00:00:00 UTC,2445905.500000,29.6633,-93.4786,0090,0.3550
1984-07-24 00:30:00 UTC,2445905.520833,29.6633,-93.4786,0090,0.3530
1984-07-24 01:00:00 UTC,2445905.541667,29.6633,-93.4786,0090,0.3490
1984-07-24 01:30:00 UTC,2445905.562500,29.6633,-93.4786,0090,0.3440
1984-07-24 02:00:00 UTC,2445905.583333,29.6633,-93.4786,0090,0.3420
1984-07-24 02:30:00 UTC,2445905.604167,29.6633,-93.4786,0090,0.3410
1984-07-24 03:00:00 UTC,2445905.625000,29.6633,-93.4786,0090,0.3400
1984-07-24 03:30:00 UTC,2445905.645833,29.6633,-93.4786,0090,0.3400
1984-07-24 04:00:00 UTC,2445905.666667,29.6633,-93.4786,0090,0.3390
1984-07-24 04:30:00 UTC,2445905.687500,29.6633,-93.4786,0090,0.3390
1984-07-24 05:00:00 UTC,2445905.708333,29.6633,-93.4786,0090,0.3390
1984-07-24 05:30:00 UTC,2445905.729167,29.6633,-93.4786,0090,0.3400
1984-07-24 06:00:00 UTC,2445905.750000,29.6633,-93.4786,0090,0.3400
1984-07-24 06:30:00 UTC,2445905.770833,29.6633,-93.4786,0090,0.3390
1984-07-24 07:00:00 UTC,2445905.791667,29.6633,-93.4786,0090,0.3390
1984-07-24 07:30:00 UTC,2445905.812500,29.6633,-93.4786,0090,0.3390
1984-07-24 08:00:00 UTC,2445905.833333,29.6633,-93.4786,0090,0.3390
1984-07-24 08:30:00 UTC,2445905.854167,29.6633,-93.4786,0090,0.3390
1984-07-24 09:00:00 UTC,2445905.875000,29.6633,-93.4786,0090,0.3390
1984-07-24 09:30:00 UTC,2445905.895833,29.6633,-93.4786,0090,0.3400
1984-07-24 10:00:00 UTC,2445905.916667,29.6633,-93.4786,0090,0.3400
1984-07-24 10:30:00 UTC,2445905.937500,29.6633,-93.4786,0090,0.3410
1984-07-24 11:00:00 UTC,2445905.958333,29.6633,-93.4786,0090,0.3420
1984-07-24 11:30:00 UTC,2445905.979167,29.6633,-93.4786,0090,0.3430
1984-07-24 12:00:00 UTC,2445906.000000,29.6633,-93.4786,0090,0.3430
1984-07-24 12:30:00 UTC,2445906.020833,29.6633,-93.4786,0090,0.3430
1984-07-24 13:00:00 UTC,2445906.041667,29.6633,-93.4786,0090,0.3440
1984-07-24 13:30:00 UTC,2445906.062500,29.6633,-93.4786,0090,0.3450
1984-07-24 14:00:00 UTC,2445906.083333,29.6633,-93.4786,0090,0.3450
1984-07-24 14:30:00 UTC,2445906.104167,29.6633,-93.4786,0090,0.3440
1984-07-24 15:00:00 UTC,2445906.125000,29.6633,-93.4786,0090,0.3430
1984-07-24 15:30:00 UTC,2445906.145833,29.6633,-93.4786,0090,0.3440
1984-07-24 16:00:00 UTC,2445906.166667,29.6633,-93.4786,0090,0.3440
1984-07-24 16:30:00 UTC,2445906.187500,29.6633,-93.4786,0090,0.3430
1984-07-24 17:00:00 UTC,2445906.208333,29.6633,-93.4786,0090,0.3430
1984-07-24 17:30:00 UTC,2445906.229167,29.6633,-93.4786,0090,0.3430
1984-07-24 18:00:00 UTC,2445906.250000,29.6633,-93.4786,0090,0.3430
1984-07-24 18:30:00 UTC,2445906.270833,29.6633,-93.4786,0090,0.3440
1984-07-24 19:00:00 UTC,2445906.291667,29.6633,-93.4786,0090,0.3450
1984-07-24 19:30:00 UTC,2445906.312500,29.6633,-93.4786,0090,0.3460
1984-07-24 20:00:00 UTC,2445906.333333,29.6633,-93.4786,0090,0.3470
1984-07-24 20:30:00 UTC,2445906.354167,29.6633,-93.4786,0090,0.3480
1984-07-24 21:00:00 UTC,2445906.375000,29.6633,-93.4786,0090,0.3470
1984-07-24 21:30:00 UTC,2445906.395833,29.6633,-93.4786,0090,0.3430
1984-07-24 22:00:00 UTC,2445906.416667,29.6633,-93.4786,0090,0.3400
1984-07-24 22:30:00 UTC,2445906.437500,29.6633,-93.4786,0090,0.3390
1984-07-24 23:00:00 UTC,2445906.458333,29.6633,-93.4786,0090,0.3400
1984-07-24 23:30:00 UTC,2445906.479167,29.6633,-93.4786,0090,0.3410
1984-07-25 00:00:00 UTC,2445906.500000,29.6633,-93.4786,0090,0.3420
1984-07-25 00:30:00 UTC,2445906.520833,29.6633,-93.4786,0090,0.3410
1984-07-25 01:00:00 UTC,2445906.541667,29.6633,-93.4786,0090,0.3400
1984-07-25 01:30:00 UTC,2445906.562500,29.6633,-93.4786,0090,0.3400
1984-07-25 02:00:00 UTC,2445906.583333,29.6633,-93.4786,0090,0.3420
1984-07-25 02:30:00 UTC,2445906.604167,29.6633,-93.4786,0090,0.3460
1984-07-25 03:00:00 UTC,2445906.625000,29.6633,-93.4786,0090,0.3480
1984-07-25 03:30:00 UTC,2445906.645833,29.6633,-93.4786,0090,0.3470
1984-07-25 04:00:00 UTC,2445906.666667,29.6633,-93.4786,0090,0.3440
1984-07-25 04:30:00 UTC,2445906.687500,29.6633,-93.4786,0090,0.3400
1984-07-25 05:00:00 UTC,2445906.708333,29.6633,-93.4786,0090,0.3380
1984-07-25 05:30:00 UTC,2445906.729167,29.6633,-93.4786,0090,0.3380
1984-07-25 06:00:00 UTC,2445906.750000,29.6633,-93.4786,0090,0.3390
1984-07-25 06:30:00 UTC,2445906.770833,29.6633,-93.4786,0090,0.3400
1984-07-25 07:00:00 UTC,2445906.791667,29.6633,-93.4786,0090,0.3400
1984-07-25 07:30:00 UTC,2445906.812500,29.6633,-93.4786,0090,0.3400
1984-07-25 08:00:00 UTC,2445906.833333,29.6633,-93.4786,0090,0.3400
1984-07-25 08:30:00 UTC,2445906.854167,29.6633,-93.4786,0090,0.3400
1984-07-25 09:00:00 UTC,2445906.875000,29.6633,-93.4786,0090,0.3400
1984-07-25 09:30:00 UTC,2445906.895833,29.6633,-93.4786,0090,0.3440
1984-07-25 10:00:00 UTC,2445906.916667,29.6633,-93.4786,0090,0.3480
1984-07-25 10:30:00 UTC,2445906.937500,29.6633,-93.4786,0090,0.3500
1984-07-25 11:00:00 UTC,2445906.958333,29.6633,-93.4786,0090,0.3500
1984-07-25 11:30:00 UTC,2445906.979167,29.6633,-93.4786,0090,0.3520
1984-07-25 12:00:00 UTC,2445907.000000,29.6633,-93.4786,0090,0.3540
1984-07-25 12:30:00 UTC,2445907.020833,29.6633,-93.4786,0090,0.3540
1984-07-25 13:00:00 UTC,2445907.041667,29.6633,-93.4786,0090,0.3500
1984-07-25 13:30:00 UTC,2445907.062500,29.6633,-93.4786,0090,0.3470
1984-07-25 14:00:00 UTC,2445907.083333,29.6633,-93.4786,0090,0.3450
1984-07-25 14:30:00 UTC,2445907.104167,29.6633,-93.4786,0090,0.3460
1984-07-25 15:00:00 UTC,2445907.125000,29.6633,-93.4786,0090,0.3480
1984-07-25 15:30:00 UTC,2445907.145833,29.6633,-93.4786,0090,0.3470
1984-07-25 16:00:00 UTC,2445907.166667,29.6633,-93.4786,0090,0.3450
1984-07-25 16:30:00 UTC,2445907.187500,29.6633,-93.4786,0090,0.3440
1984-07-25 17:00:00 UTC,2445907.208333,29.6633,-93.4786,0090,0.3440
1984-07-25 17:30:00 UTC,2445907.229167,29.6633,-93.4786,0090,0.3440
1984-07-25 18:00:00 UTC,2445907.250000,29.6633,-93.4786,0090,0.3430
1984-07-25 18:30:00 UTC,2445907.270833,29.6633,-93.4786,0090,0.3430
1984-07-25 19:00:00 UTC,2445907.291667,29.6633,-93.4786,0090,0.3420
1984-07-25 19:30:00 UTC,2445907.312500,29.6633,-93.4786,0090,0.3400
1984-07-25 20:00:00 UTC,2445907.333333,29.6633,-93.4786,0090,0.3390
1984-07-25 20:30:00 UTC,2445907.354167,29.6633,-93.4786,0090,0.3380
1984-07-25 21:00:00 UTC,2445907.375000,29.6633,-93.4786,0090,0.3380
1984-07-25 21:30:00 UTC,2445907.395833,29.6633,-93.4786,0090,0.3380
1984-07-25 22:00:00 UTC,2445907.416667,29.6633,-93.4786,0090,0.3370
1984-07-25 22:30:00 UTC,2445907.437500,29.6633,-93.4786,0090,0.3380
1984-07-25 23:00:00 UTC,2445907.458333,29.6633,-93.4786,0090,0.3380
1984-07-25 23:30:00 UTC,2445907.479167,29.6633,-93.4786,0090,0.3370
1984-07-26 00:00:00 UTC,2445907.500000,29.6633,-93.4786,0090,0.3350
1984-07-26 00:30:00 UTC,2445907.520833,29.6633,-93.4786,0090,0.3320
1984-07-26 01:00:00 UTC,2445907.541667,29.6633,-93.4786,0090,0.3300
1984-07-26 01:30:00 UTC,2445907.562500,29.6633,-93.4786,0090,0.3290
1984-07-26 02:00:00 UTC,2445907.583333,29.6633,-93.4786,0090,0.3300
1984-07-26 02:30:00 UTC,2445907.604167,29.6633,-93.4786,0090,0.3260
1984-07-26 03:00:00 UTC,2445907.625000,29.6633,-93.4786,0090,0.3210
1984-07-26 03:30:00 UTC,2445907.645833,29.6633,-93.4786,0090,0.3180
1984-07-26 04:00:00 UTC,2445907.666667,29.6633,-93.4786,0090,0.3170